"Time","Value","Approval","myLocation"
"2023-05-06 00:00",3.24735858024067,"Approved","OW457"
"2023-05-06 01:00",3.24935362524017,"Approved","OW457"
"2023-05-06 02:00",3.25134867023966,"Approved","OW457"
"2023-05-06 03:00",3.25334371523915,"Approved","OW457"
"2023-05-06 04:00",3.25533876023865,"Approved","OW457"
"2023-05-06 05:00",3.25733380523814,"Approved","OW457"
"2023-05-06 06:00",3.25632885023764,"Approved","OW457"
"2023-05-06 07:00",3.25532389523713,"Approved","OW457"
"2023-05-06 08:00",3.25231894023663,"Approved","OW457"
"2023-05-06 09:00",3.25231398523612,"Approved","OW457"
"2023-05-06 10:00",3.24930903023562,"Approved","OW457"
"2023-05-06 11:00",3.24630407523511,"Approved","OW457"
"2023-05-06 12:00",3.2442991202346,"Approved","OW457"
"2023-05-06 13:00",3.2392941652341,"Approved","OW457"
"2023-05-06 14:00",3.23828921023359,"Approved","OW457"
"2023-05-06 15:00",3.23728425523309,"Approved","OW457"
"2023-05-06 16:00",3.23427930023258,"Approved","OW457"
"2023-05-06 17:00",3.23327434523208,"Approved","OW457"
"2023-05-06 18:00",3.23326939023157,"Approved","OW457"
"2023-05-06 19:00",3.23226443523106,"Approved","OW457"
"2023-05-06 20:00",3.23225948023056,"Approved","OW457"
"2023-05-06 21:00",3.23225452523005,"Approved","OW457"
"2023-05-06 22:00",3.23324957022955,"Approved","OW457"
"2023-05-06 23:00",3.23524461522904,"Approved","OW457"
"2023-05-07 00:00",3.23523966022854,"Approved","OW457"
"2023-05-07 01:00",3.23723470522803,"Approved","OW457"
"2023-05-07 02:00",3.23922975022753,"Approved","OW457"
"2023-05-07 03:00",3.24122479522702,"Approved","OW457"
"2023-05-07 04:00",3.24421984022651,"Approved","OW457"
"2023-05-07 05:00",3.24621488522601,"Approved","OW457"
"2023-05-07 06:00",3.2482099302255,"Approved","OW457"
"2023-05-07 07:00",3.249204975225,"Approved","OW457"
"2023-05-07 08:00",3.24920002022449,"Approved","OW457"
"2023-05-07 09:00",3.24719506522399,"Approved","OW457"
"2023-05-07 10:00",3.24619011022348,"Approved","OW457"
"2023-05-07 11:00",3.24518515522298,"Approved","OW457"
"2023-05-07 12:00",3.24218020022247,"Approved","OW457"
"2023-05-07 13:00",3.24017524522196,"Approved","OW457"
"2023-05-07 14:00",3.23917029022146,"Approved","OW457"
"2023-05-07 15:00",3.23816533522095,"Approved","OW457"
"2023-05-07 16:00",3.23616038022045,"Approved","OW457"
"2023-05-07 17:00",3.23315542521994,"Approved","OW457"
"2023-05-07 18:00",3.22915047021944,"Approved","OW457"
"2023-05-07 19:00",3.22814551521893,"Approved","OW457"
"2023-05-07 20:00",3.22614056021842,"Approved","OW457"
"2023-05-07 21:00",3.22513560521792,"Approved","OW457"
"2023-05-07 22:00",3.22513065021741,"Approved","OW457"
"2023-05-07 23:00",3.22512569521691,"Approved","OW457"
"2023-05-08 00:00",3.2241207402164,"Approved","OW457"
"2023-05-08 01:00",3.2251157852159,"Approved","OW457"
"2023-05-08 02:00",3.22611083021539,"Approved","OW457"
"2023-05-08 03:00",3.22810587521488,"Approved","OW457"
"2023-05-08 04:00",3.23410092021438,"Approved","OW457"
"2023-05-08 05:00",3.23609596521387,"Approved","OW457"
"2023-05-08 06:00",3.23809101021337,"Approved","OW457"
"2023-05-08 07:00",3.23908605521286,"Approved","OW457"
"2023-05-08 08:00",3.24008110021236,"Approved","OW457"
"2023-05-08 09:00",3.24007614521185,"Approved","OW457"
"2023-05-08 10:00",3.24007119021135,"Approved","OW457"
"2023-05-08 11:00",3.23706623521084,"Approved","OW457"
"2023-05-08 12:00",3.23406128021033,"Approved","OW457"
"2023-05-08 13:00",3.23405632520983,"Approved","OW457"
"2023-05-08 14:00",3.23305137020932,"Approved","OW457"
"2023-05-08 15:00",3.23004641520882,"Approved","OW457"
"2023-05-08 16:00",3.22704146020831,"Approved","OW457"
"2023-05-08 17:00",3.22303650520781,"Approved","OW457"
"2023-05-08 18:00",3.2190315502073,"Approved","OW457"
"2023-05-08 19:00",3.2180265952068,"Approved","OW457"
"2023-05-08 20:00",3.21502164020629,"Approved","OW457"
"2023-05-08 21:00",3.21301668520578,"Approved","OW457"
"2023-05-08 22:00",3.21301173020528,"Approved","OW457"
"2023-05-08 23:00",3.21400677520477,"Approved","OW457"
"2023-05-09 00:00",3.21500182020427,"Approved","OW457"
"2023-05-09 01:00",3.21599686520376,"Approved","OW457"
"2023-05-09 02:00",3.21799191020326,"Approved","OW457"
"2023-05-09 03:00",3.22198695520275,"Approved","OW457"
"2023-05-09 04:00",3.22698200020224,"Approved","OW457"
"2023-05-09 05:00",3.22897704520174,"Approved","OW457"
"2023-05-09 06:00",3.23097209020123,"Approved","OW457"
"2023-05-09 07:00",3.23296713520073,"Approved","OW457"
"2023-05-09 08:00",3.23396218020022,"Approved","OW457"
"2023-05-09 09:00",3.23795722519972,"Approved","OW457"
"2023-05-09 10:00",3.24195227019921,"Approved","OW457"
"2023-05-09 11:00",3.24394731519871,"Approved","OW457"
"2023-05-09 12:00",3.2449423601982,"Approved","OW457"
"2023-05-09 13:00",3.24593740519769,"Approved","OW457"
"2023-05-09 14:00",3.24493245019719,"Approved","OW457"
"2023-05-09 15:00",3.24492749519668,"Approved","OW457"
"2023-05-09 16:00",3.24192254019618,"Approved","OW457"
"2023-05-09 17:00",3.23691758519567,"Approved","OW457"
"2023-05-09 18:00",3.23491263019517,"Approved","OW457"
"2023-05-09 19:00",3.23290767519466,"Approved","OW457"
"2023-05-09 20:00",3.22890272019415,"Approved","OW457"
"2023-05-09 21:00",3.22489776519365,"Approved","OW457"
"2023-05-09 22:00",3.22189281019314,"Approved","OW457"
"2023-05-09 23:00",3.21788785519264,"Approved","OW457"
"2023-05-10 00:00",3.21488290019213,"Approved","OW457"
"2023-05-10 01:00",3.21287794519163,"Approved","OW457"
"2023-05-10 02:00",3.21287299019112,"Approved","OW457"
"2023-05-10 03:00",3.21586803519062,"Approved","OW457"
"2023-05-10 04:00",3.21786308019011,"Approved","OW457"
"2023-05-10 05:00",3.2198581251896,"Approved","OW457"
"2023-05-10 06:00",3.2218531701891,"Approved","OW457"
"2023-05-10 07:00",3.22184821518859,"Approved","OW457"
"2023-05-10 08:00",3.22384326018809,"Approved","OW457"
"2023-05-10 09:00",3.22583830518758,"Approved","OW457"
"2023-05-10 10:00",3.22583335018708,"Approved","OW457"
"2023-05-10 11:00",3.22882839518657,"Approved","OW457"
"2023-05-10 12:00",3.23182344018607,"Approved","OW457"
"2023-05-10 13:00",3.23381848518556,"Approved","OW457"
"2023-05-10 14:00",3.23581353018505,"Approved","OW457"
"2023-05-10 15:00",3.23680857518455,"Approved","OW457"
"2023-05-10 16:00",3.23680362018404,"Approved","OW457"
"2023-05-10 17:00",3.23679866518354,"Approved","OW457"
"2023-05-10 18:00",3.23379371018303,"Approved","OW457"
"2023-05-10 19:00",3.23378875518253,"Approved","OW457"
"2023-05-10 20:00",3.22978380018202,"Approved","OW457"
"2023-05-10 21:00",3.22677884518151,"Approved","OW457"
"2023-05-10 22:00",3.22577389018101,"Approved","OW457"
"2023-05-10 23:00",3.2247689351805,"Approved","OW457"
"2023-05-11 00:00",3.22276398018,"Approved","OW457"
"2023-05-11 01:00",3.22075902517949,"Approved","OW457"
"2023-05-11 02:00",3.21875407017899,"Approved","OW457"
"2023-05-11 03:00",3.21674911517848,"Approved","OW457"
"2023-05-11 04:00",3.21674416017798,"Approved","OW457"
"2023-05-11 05:00",3.21973920517747,"Approved","OW457"
"2023-05-11 06:00",3.21773425017696,"Approved","OW457"
"2023-05-11 07:00",3.21572929517646,"Approved","OW457"
"2023-05-11 08:00",3.21372434017595,"Approved","OW457"
"2023-05-11 09:00",3.21471938517545,"Approved","OW457"
"2023-05-11 10:00",3.21571443017494,"Approved","OW457"
"2023-05-11 11:00",3.21670947517444,"Approved","OW457"
"2023-05-11 12:00",3.21870452017393,"Approved","OW457"
"2023-05-11 13:00",3.22069956517342,"Approved","OW457"
"2023-05-11 14:00",3.22269461017292,"Approved","OW457"
"2023-05-11 15:00",3.22468965517241,"Approved","OW457"
"2023-05-11 16:00",3.22768470017191,"Approved","OW457"
"2023-05-11 17:00",3.2296797451714,"Approved","OW457"
"2023-05-11 18:00",3.2296747901709,"Approved","OW457"
"2023-05-11 19:00",3.22966983517039,"Approved","OW457"
"2023-05-11 20:00",3.22966488016989,"Approved","OW457"
"2023-05-11 21:00",3.23365992516938,"Approved","OW457"
"2023-05-11 22:00",3.23465497016887,"Approved","OW457"
"2023-05-11 23:00",3.23565001516837,"Approved","OW457"
"2023-05-12 00:00",3.23564506016786,"Approved","OW457"
"2023-05-12 01:00",3.23664010516736,"Approved","OW457"
"2023-05-12 02:00",3.23563515016685,"Approved","OW457"
"2023-05-12 03:00",3.23563019516635,"Approved","OW457"
"2023-05-12 04:00",3.23662524016584,"Approved","OW457"
"2023-05-12 05:00",3.23762028516534,"Approved","OW457"
"2023-05-12 06:00",3.23761533016483,"Approved","OW457"
"2023-05-12 07:00",3.23661037516432,"Approved","OW457"
"2023-05-12 08:00",3.23560542016382,"Approved","OW457"
"2023-05-12 09:00",3.23460046516331,"Approved","OW457"
"2023-05-12 10:00",3.23159551016281,"Approved","OW457"
"2023-05-12 11:00",3.2285905551623,"Approved","OW457"
"2023-05-12 12:00",3.2265856001618,"Approved","OW457"
"2023-05-12 13:00",3.22358064516129,"Approved","OW457"
"2023-05-12 14:00",3.22257569016078,"Approved","OW457"
"2023-05-12 15:00",3.22157073516028,"Approved","OW457"
"2023-05-12 16:00",3.21856578015977,"Approved","OW457"
"2023-05-12 17:00",3.21456082515927,"Approved","OW457"
"2023-05-12 18:00",3.21355587015876,"Approved","OW457"
"2023-05-12 19:00",3.21155091515826,"Approved","OW457"
"2023-05-12 20:00",3.21054596015775,"Approved","OW457"
"2023-05-12 21:00",3.20954100515725,"Approved","OW457"
"2023-05-12 22:00",3.20953605015674,"Approved","OW457"
"2023-05-12 23:00",3.21053109515623,"Approved","OW457"
"2023-05-13 00:00",3.21152614015573,"Approved","OW457"
"2023-05-13 01:00",3.21352118515522,"Approved","OW457"
"2023-05-13 02:00",3.21551623015472,"Approved","OW457"
"2023-05-13 03:00",3.21851127515421,"Approved","OW457"
"2023-05-13 04:00",3.22250632015371,"Approved","OW457"
"2023-05-13 05:00",3.2275013651532,"Approved","OW457"
"2023-05-13 06:00",3.23149641015269,"Approved","OW457"
"2023-05-13 07:00",3.23449145515219,"Approved","OW457"
"2023-05-13 08:00",3.23648650015168,"Approved","OW457"
"2023-05-13 09:00",3.23848154515118,"Approved","OW457"
"2023-05-13 10:00",3.23947659015067,"Approved","OW457"
"2023-05-13 11:00",3.23847163515017,"Approved","OW457"
"2023-05-13 12:00",3.23946668014966,"Approved","OW457"
"2023-05-13 13:00",3.23946172514916,"Approved","OW457"
"2023-05-13 14:00",3.23845677014865,"Approved","OW457"
"2023-05-13 15:00",3.23645181514814,"Approved","OW457"
"2023-05-13 16:00",3.23444686014764,"Approved","OW457"
"2023-05-13 17:00",3.23044190514713,"Approved","OW457"
"2023-05-13 18:00",3.22743695014663,"Approved","OW457"
"2023-05-13 19:00",3.22343199514612,"Approved","OW457"
"2023-05-13 20:00",3.22042704014562,"Approved","OW457"
"2023-05-13 21:00",3.21542208514511,"Approved","OW457"
"2023-05-13 22:00",3.21241713014461,"Approved","OW457"
"2023-05-13 23:00",3.2074121751441,"Approved","OW457"
"2023-05-14 00:00",3.20640722014359,"Approved","OW457"
"2023-05-14 01:00",3.20340226514309,"Approved","OW457"
"2023-05-14 02:00",3.20339731014258,"Approved","OW457"
"2023-05-14 03:00",3.20339235514208,"Approved","OW457"
"2023-05-14 04:00",3.20438740014157,"Approved","OW457"
"2023-05-14 05:00",3.20538244514107,"Approved","OW457"
"2023-05-14 06:00",3.20637749014056,"Approved","OW457"
"2023-05-14 07:00",3.20437253514005,"Approved","OW457"
"2023-05-14 08:00",3.20236758013955,"Approved","OW457"
"2023-05-14 09:00",3.20236262513904,"Approved","OW457"
"2023-05-14 10:00",3.20035767013854,"Approved","OW457"
"2023-05-14 11:00",3.20335271513803,"Approved","OW457"
"2023-05-14 12:00",3.20434776013753,"Approved","OW457"
"2023-05-14 13:00",3.20534280513702,"Approved","OW457"
"2023-05-14 14:00",3.20833785013652,"Approved","OW457"
"2023-05-14 15:00",3.21133289513601,"Approved","OW457"
"2023-05-14 16:00",3.2143279401355,"Approved","OW457"
"2023-05-14 17:00",3.215322985135,"Approved","OW457"
"2023-05-14 18:00",3.21531803013449,"Approved","OW457"
"2023-05-14 19:00",3.21331307513399,"Approved","OW457"
"2023-05-14 20:00",3.21330812013348,"Approved","OW457"
"2023-05-14 21:00",3.21230316513298,"Approved","OW457"
"2023-05-14 22:00",3.21129821013247,"Approved","OW457"
"2023-05-14 23:00",3.21329325513196,"Approved","OW457"
"2023-05-15 00:00",3.21428830013146,"Approved","OW457"
"2023-05-15 01:00",3.21528334513095,"Approved","OW457"
"2023-05-15 02:00",3.21627839013045,"Approved","OW457"
"2023-05-15 03:00",3.21827343512994,"Approved","OW457"
"2023-05-15 04:00",3.21926848012944,"Approved","OW457"
"2023-05-15 05:00",3.22026352512893,"Approved","OW457"
"2023-05-15 06:00",3.21825857012843,"Approved","OW457"
"2023-05-15 07:00",3.21625361512792,"Approved","OW457"
"2023-05-15 08:00",3.21424866012741,"Approved","OW457"
"2023-05-15 09:00",3.21124370512691,"Approved","OW457"
"2023-05-15 10:00",3.2082387501264,"Approved","OW457"
"2023-05-15 11:00",3.2052337951259,"Approved","OW457"
"2023-05-15 12:00",3.20222884012539,"Approved","OW457"
"2023-05-15 13:00",3.20122388512489,"Approved","OW457"
"2023-05-15 14:00",3.20121893012438,"Approved","OW457"
"2023-05-15 15:00",3.20121397512387,"Approved","OW457"
"2023-05-15 16:00",3.19820902012337,"Approved","OW457"
"2023-05-15 17:00",3.19720406512286,"Approved","OW457"
"2023-05-15 18:00",3.19519911012236,"Approved","OW457"
"2023-05-15 19:00",3.19419415512185,"Approved","OW457"
"2023-05-15 20:00",3.19318920012135,"Approved","OW457"
"2023-05-15 21:00",3.19418424512084,"Approved","OW457"
"2023-05-15 22:00",3.19517929012034,"Approved","OW457"
"2023-05-15 23:00",3.19617433511983,"Approved","OW457"
"2023-05-16 00:00",3.19916938011932,"Approved","OW457"
"2023-05-16 01:00",3.20316442511882,"Approved","OW457"
"2023-05-16 02:00",3.20615947011831,"Approved","OW457"
"2023-05-16 03:00",3.21215451511781,"Approved","OW457"
"2023-05-16 04:00",3.2191495601173,"Approved","OW457"
"2023-05-16 05:00",3.2261446051168,"Approved","OW457"
"2023-05-16 06:00",3.22813965011629,"Approved","OW457"
"2023-05-16 07:00",3.23613469511579,"Approved","OW457"
"2023-05-16 08:00",3.24012974011528,"Approved","OW457"
"2023-05-16 09:00",3.24312478511477,"Approved","OW457"
"2023-05-16 10:00",3.24411983011427,"Approved","OW457"
"2023-05-16 11:00",3.24411487511376,"Approved","OW457"
"2023-05-16 12:00",3.24210992011326,"Approved","OW457"
"2023-05-16 13:00",3.24210496511275,"Approved","OW457"
"2023-05-16 14:00",3.24410001011225,"Approved","OW457"
"2023-05-16 15:00",3.24309505511174,"Approved","OW457"
"2023-05-16 16:00",3.24209010011123,"Approved","OW457"
"2023-05-16 17:00",3.24008514511073,"Approved","OW457"
"2023-05-16 18:00",3.23808019011022,"Approved","OW457"
"2023-05-16 19:00",3.23507523510972,"Approved","OW457"
"2023-05-16 20:00",3.23207028010921,"Approved","OW457"
"2023-05-16 21:00",3.22906532510871,"Approved","OW457"
"2023-05-16 22:00",3.2260603701082,"Approved","OW457"
"2023-05-16 23:00",3.2220554151077,"Approved","OW457"
"2023-05-17 00:00",3.22105046010719,"Approved","OW457"
"2023-05-17 01:00",3.22204550510668,"Approved","OW457"
"2023-05-17 02:00",3.22504055010618,"Approved","OW457"
"2023-05-17 03:00",3.22903559510567,"Approved","OW457"
"2023-05-17 04:00",3.23103064010517,"Approved","OW457"
"2023-05-17 05:00",3.23902568510466,"Approved","OW457"
"2023-05-17 06:00",3.24002073010416,"Approved","OW457"
"2023-05-17 07:00",3.23901577510365,"Approved","OW457"
"2023-05-17 08:00",3.24601082010315,"Approved","OW457"
"2023-05-17 09:00",3.24900586510264,"Approved","OW457"
"2023-05-17 10:00",3.25200091010213,"Approved","OW457"
"2023-05-17 11:00",3.25499595510163,"Approved","OW457"
"2023-05-17 12:00",3.25899100010112,"Approved","OW457"
"2023-05-17 13:00",3.26398604510062,"Approved","OW457"
"2023-05-17 14:00",3.26798109010011,"Approved","OW457"
"2023-05-17 15:00",3.26997613509961,"Approved","OW457"
"2023-05-17 16:00",3.2699711800991,"Approved","OW457"
"2023-05-17 17:00",3.26896622509859,"Approved","OW457"
"2023-05-17 18:00",3.26996127009809,"Approved","OW457"
"2023-05-17 19:00",3.26895631509758,"Approved","OW457"
"2023-05-17 20:00",3.26795136009708,"Approved","OW457"
"2023-05-17 21:00",3.26694640509657,"Approved","OW457"
"2023-05-17 22:00",3.26694145009607,"Approved","OW457"
"2023-05-17 23:00",3.26393649509556,"Approved","OW457"
"2023-05-18 00:00",3.26293154009505,"Approved","OW457"
"2023-05-18 01:00",3.26292658509455,"Approved","OW457"
"2023-05-18 02:00",3.26392163009404,"Approved","OW457"
"2023-05-18 03:00",3.26491667509354,"Approved","OW457"
"2023-05-18 04:00",3.26791172009303,"Approved","OW457"
"2023-05-18 05:00",3.26990676509253,"Approved","OW457"
"2023-05-18 06:00",3.26990181009202,"Approved","OW457"
"2023-05-18 07:00",3.26989685509152,"Approved","OW457"
"2023-05-18 08:00",3.27089190009101,"Approved","OW457"
"2023-05-18 09:00",3.2688869450905,"Approved","OW457"
"2023-05-18 10:00",3.26788199009,"Approved","OW457"
"2023-05-18 11:00",3.26687703508949,"Approved","OW457"
"2023-05-18 12:00",3.26687208008899,"Approved","OW457"
"2023-05-18 13:00",3.26786712508848,"Approved","OW457"
"2023-05-18 14:00",3.26786217008798,"Approved","OW457"
"2023-05-18 15:00",3.26885721508747,"Approved","OW457"
"2023-05-18 16:00",3.26785226008697,"Approved","OW457"
"2023-05-18 17:00",3.26684730508646,"Approved","OW457"
"2023-05-18 18:00",3.26584235008595,"Approved","OW457"
"2023-05-18 19:00",3.26383739508545,"Approved","OW457"
"2023-05-18 20:00",3.26283244008494,"Approved","OW457"
"2023-05-18 21:00",3.26382748508444,"Approved","OW457"
"2023-05-18 22:00",3.26282253008393,"Approved","OW457"
"2023-05-18 23:00",3.26481757508343,"Approved","OW457"
"2023-05-19 00:00",3.26281262008292,"Approved","OW457"
"2023-05-19 01:00",3.26180766508241,"Approved","OW457"
"2023-05-19 02:00",3.26080271008191,"Approved","OW457"
"2023-05-19 03:00",3.2607977550814,"Approved","OW457"
"2023-05-19 04:00",3.2617928000809,"Approved","OW457"
"2023-05-19 05:00",3.26378784508039,"Approved","OW457"
"2023-05-19 06:00",3.26278289007989,"Approved","OW457"
"2023-05-19 07:00",3.26377793507938,"Approved","OW457"
"2023-05-19 08:00",3.26177298007888,"Approved","OW457"
"2023-05-19 09:00",3.26176802507837,"Approved","OW457"
"2023-05-19 10:00",3.26076307007786,"Approved","OW457"
"2023-05-19 11:00",3.26075811507736,"Approved","OW457"
"2023-05-19 12:00",3.25975316007685,"Approved","OW457"
"2023-05-19 13:00",3.25974820507635,"Approved","OW457"
"2023-05-19 14:00",3.25974325007584,"Approved","OW457"
"2023-05-19 15:00",3.25873829507534,"Approved","OW457"
"2023-05-19 16:00",3.25673334007483,"Approved","OW457"
"2023-05-19 17:00",3.25472838507432,"Approved","OW457"
"2023-05-19 18:00",3.25072343007382,"Approved","OW457"
"2023-05-19 19:00",3.24771847507331,"Approved","OW457"
"2023-05-19 20:00",3.24571352007281,"Approved","OW457"
"2023-05-19 21:00",3.2437085650723,"Approved","OW457"
"2023-05-19 22:00",3.2427036100718,"Approved","OW457"
"2023-05-19 23:00",3.23869865507129,"Approved","OW457"
"2023-05-20 00:00",3.23669370007079,"Approved","OW457"
"2023-05-20 01:00",3.23468874507028,"Approved","OW457"
"2023-05-20 02:00",3.23268379006977,"Approved","OW457"
"2023-05-20 03:00",3.23167883506927,"Approved","OW457"
"2023-05-20 04:00",3.23567388006876,"Approved","OW457"
"2023-05-20 05:00",3.23866892506826,"Approved","OW457"
"2023-05-20 06:00",3.23566397006775,"Approved","OW457"
"2023-05-20 07:00",3.23665901506725,"Approved","OW457"
"2023-05-20 08:00",3.23565406006674,"Approved","OW457"
"2023-05-20 09:00",3.23464910506623,"Approved","OW457"
"2023-05-20 10:00",3.23364415006573,"Approved","OW457"
"2023-05-20 11:00",3.23463919506522,"Approved","OW457"
"2023-05-20 12:00",3.23263424006472,"Approved","OW457"
"2023-05-20 13:00",3.23462928506421,"Approved","OW457"
"2023-05-20 14:00",3.23462433006371,"Approved","OW457"
"2023-05-20 15:00",3.2336193750632,"Approved","OW457"
"2023-05-20 16:00",3.2326144200627,"Approved","OW457"
"2023-05-20 17:00",3.22760946506219,"Approved","OW457"
"2023-05-20 18:00",3.22560451006168,"Approved","OW457"
"2023-05-20 19:00",3.22359955506118,"Approved","OW457"
"2023-05-20 20:00",3.22259460006067,"Approved","OW457"
"2023-05-20 21:00",3.22158964506017,"Approved","OW457"
"2023-05-20 22:00",3.22058469005966,"Approved","OW457"
"2023-05-20 23:00",3.21957973505916,"Approved","OW457"
"2023-05-21 00:00",3.22157478005865,"Approved","OW457"
"2023-05-21 01:00",3.22356982505815,"Approved","OW457"
"2023-05-21 02:00",3.22556487005764,"Approved","OW457"
"2023-05-21 03:00",3.22955991505713,"Approved","OW457"
"2023-05-21 04:00",3.23455496005663,"Approved","OW457"
"2023-05-21 05:00",3.23855000505612,"Approved","OW457"
"2023-05-21 06:00",3.24354505005562,"Approved","OW457"
"2023-05-21 07:00",3.24854009505511,"Approved","OW457"
"2023-05-21 08:00",3.25053514005461,"Approved","OW457"
"2023-05-21 09:00",3.2525301850541,"Approved","OW457"
"2023-05-21 10:00",3.25552523005359,"Approved","OW457"
"2023-05-21 11:00",3.25752027505309,"Approved","OW457"
"2023-05-21 12:00",3.25851532005258,"Approved","OW457"
"2023-05-21 13:00",3.26051036505208,"Approved","OW457"
"2023-05-21 14:00",3.26150541005157,"Approved","OW457"
"2023-05-21 15:00",3.26250045505107,"Approved","OW457"
"2023-05-21 16:00",3.26349550005056,"Approved","OW457"
"2023-05-21 17:00",3.26249054505006,"Approved","OW457"
"2023-05-21 18:00",3.26248559004955,"Approved","OW457"
"2023-05-21 19:00",3.26248063504904,"Approved","OW457"
"2023-05-21 20:00",3.26047568004854,"Approved","OW457"
"2023-05-21 21:00",3.25947072504803,"Approved","OW457"
"2023-05-21 22:00",3.25946577004753,"Approved","OW457"
"2023-05-21 23:00",3.25646081504702,"Approved","OW457"
"2023-05-22 00:00",3.25545586004652,"Approved","OW457"
"2023-05-22 01:00",3.25545090504601,"Approved","OW457"
"2023-05-22 02:00",3.2544459500455,"Approved","OW457"
"2023-05-22 03:00",3.255440995045,"Approved","OW457"
"2023-05-22 04:00",3.25443604004449,"Approved","OW457"
"2023-05-22 05:00",3.25543108504399,"Approved","OW457"
"2023-05-22 06:00",3.25442613004348,"Approved","OW457"
"2023-05-22 07:00",3.25342117504298,"Approved","OW457"
"2023-05-22 08:00",3.25341622004247,"Approved","OW457"
"2023-05-22 09:00",3.25241126504197,"Approved","OW457"
"2023-05-22 10:00",3.25140631004146,"Approved","OW457"
"2023-05-22 11:00",3.25140135504095,"Approved","OW457"
"2023-05-22 12:00",3.24839640004045,"Approved","OW457"
"2023-05-22 13:00",3.24739144503994,"Approved","OW457"
"2023-05-22 14:00",3.24738649003944,"Approved","OW457"
"2023-05-22 15:00",3.24638153503893,"Approved","OW457"
"2023-05-22 16:00",3.24737658003843,"Approved","OW457"
"2023-05-22 17:00",3.24637162503792,"Approved","OW457"
"2023-05-22 18:00",3.24636667003742,"Approved","OW457"
"2023-05-22 19:00",3.24536171503691,"Approved","OW457"
"2023-05-22 20:00",3.2453567600364,"Approved","OW457"
"2023-05-22 21:00",3.2433518050359,"Approved","OW457"
"2023-05-22 22:00",3.24234685003539,"Approved","OW457"
"2023-05-22 23:00",3.23934189503489,"Approved","OW457"
"2023-05-23 00:00",3.23733694003438,"Approved","OW457"
"2023-05-23 01:00",3.23333198503388,"Approved","OW457"
"2023-05-23 02:00",3.23232703003337,"Approved","OW457"
"2023-05-23 03:00",3.22932207503287,"Approved","OW457"
"2023-05-23 04:00",3.22931712003236,"Approved","OW457"
"2023-05-23 05:00",3.22931216503185,"Approved","OW457"
"2023-05-23 06:00",3.22730721003135,"Approved","OW457"
"2023-05-23 07:00",3.22630225503084,"Approved","OW457"
"2023-05-23 08:00",3.22729730003034,"Approved","OW457"
"2023-05-23 09:00",3.22529234502983,"Approved","OW457"
"2023-05-23 10:00",3.22228739002933,"Approved","OW457"
"2023-05-23 11:00",3.22028243502882,"Approved","OW457"
"2023-05-23 12:00",3.22127748002831,"Approved","OW457"
"2023-05-23 13:00",3.21927252502781,"Approved","OW457"
"2023-05-23 14:00",3.2202675700273,"Approved","OW457"
"2023-05-23 15:00",3.2232626150268,"Approved","OW457"
"2023-05-23 16:00",3.22325766002629,"Approved","OW457"
"2023-05-23 17:00",3.22525270502579,"Approved","OW457"
"2023-05-23 18:00",3.22724775002528,"Approved","OW457"
"2023-05-23 19:00",3.23124279502477,"Approved","OW457"